(678026) = 2017 FD126

Discovered at Kitt Peak on 2008-08-07 by Spacewatch.

Orbit

Orbit type: Main Belt

Note: WebGL enabled browser required.

epoch2024-03-31.0
epoch JD2460400.5
perihelion date2021-05-11.67929
perihelion JD2459346.17929
argument of perihelion (°)268.96620
ascending node (°)163.50276
inclination (°)9.09241
eccentricity0.0746968
perihelion distance (AU)2.9394639
Tisserand w.r.t. Jupiter3.2
ΔV w.r.t. Earth (km/sec)11.0
semimajor axis (AU)3.1767576
mean anomaly (°)183.52721
mean daily motion (°/day)0.17407150
aphelion distance (AU)3.414
period (years)5.66
P-vector [x]0.29765489
P-vector [y]0.92666601
P-vector [z]0.22954668
Q-vector [x]-0.95361827
Q-vector [y]0.27730089
Q-vector [z]0.11711705
absolute magnitude16.37
phase slope0.15
uncertainty0
referenceMPO 809538
observations used225
oppositions11
arc length (days)7122
first opposition used2003
last opposition used2023
residual rms (arc-secs)0.85
perturbers coarse indicatorM-v
perturbers precise indicator003Ek
first observation date used2003-10-22.0
last observation date used2023-04-22.0
computer nameBell

Observations

231 total observations over interval: 2003 10 22.27718 – 2023 04 22.389775
These data are available for download (format description).

Date (UT) J2000 RA J2000 Dec Magn Location Ref
2003 10 22.27718 02 28 22.86 +03 44 43.7 20.9 V 691 – Steward Observatory, Kitt Peak-Spacewatch MPS 843274
2003 10 22.30531 02 28 21.63 +03 44 33.6 21.2 V 691 – Steward Observatory, Kitt Peak-Spacewatch MPS 843274
2003 10 22.33252 02 28 20.42 +03 44 23.3 21.3 V 691 – Steward Observatory, Kitt Peak-Spacewatch MPS 843274
2008 08 07.29238 22 50 52.20 -04 53 18.7   691 – Steward Observatory, Kitt Peak-Spacewatch MPS 843274
2008 08 07.31341 22 50 51.58 -04 53 25.2   691 – Steward Observatory, Kitt Peak-Spacewatch MPS 843274
2008 08 07.32862 22 50 51.10 -04 53 29.8   691 – Steward Observatory, Kitt Peak-Spacewatch MPS 843274
2008 09 07.20632 22 31 22.22 -08 06 26.1 21.0 V G96 – Mt. Lemmon Survey MPS 843274
2008 09 07.21257 22 31 21.97 -08 06 28.6 20.5 V G96 – Mt. Lemmon Survey MPS 843274
2008 09 07.21881 22 31 21.68 -08 06 31.6 20.6 V G96 – Mt. Lemmon Survey MPS 843274
2008 09 07.22509 22 31 21.50 -08 06 33.5 21.0 V G96 – Mt. Lemmon Survey MPS 843274
2008 09 09.30205 22 29 58.74 -08 20 15.7 19.9 V G96 – Mt. Lemmon Survey MPS 843274
2008 09 09.30905 22 29 58.41 -08 20 18.9 20.5 V G96 – Mt. Lemmon Survey MPS 843274
2008 09 09.31610 22 29 58.12 -08 20 21.6 20.6 V G96 – Mt. Lemmon Survey MPS 843274
2008 09 09.32318 22 29 57.69 -08 20 25.7 19.2 V G96 – Mt. Lemmon Survey MPS 843274
2011 01 30.41045 10 22 56.073 +06 10 50.78 21.5 w F51 – Pan-STARRS 1, Haleakala MPS 843274
2011 01 30.42519 10 22 55.540 +06 10 55.42 21.6 w F51 – Pan-STARRS 1, Haleakala MPS 843274
2011 01 30.44127 10 22 54.980 +06 11 00.38 21.6 w F51 – Pan-STARRS 1, Haleakala MPS 843274
2011 02 05.44002 10 19 16.208 +06 43 51.83 21.3 w F51 – Pan-STARRS 1, Haleakala MPS 843274
2011 02 05.45430 10 19 15.641 +06 43 57.32 21.1 w F51 – Pan-STARRS 1, Haleakala MPS 843274
2011 02 05.48311 10 19 14.475 +06 44 06.83 21.4 w F51 – Pan-STARRS 1, Haleakala MPS 843274
2011 03 05.29199 09 59 46.42 +09 42 56.7 20.6 V G96 – Mt. Lemmon Survey MPS 843274
2011 03 05.30021 09 59 46.10 +09 42 59.5 20.1 V G96 – Mt. Lemmon Survey MPS 843274
2011 03 05.30844 09 59 45.74 +09 43 02.7 20.6 V G96 – Mt. Lemmon Survey MPS 843274
2011 03 05.31673 09 59 45.42 +09 43 05.9 20.7 V G96 – Mt. Lemmon Survey MPS 843274
2012 03 27.42883 15 13 39.29 -07 59 31.0 22.1 V 691 – Steward Observatory, Kitt Peak-Spacewatch MPS 843274
2012 03 27.44657 15 13 39.00 -07 59 25.7 21.9 V 691 – Steward Observatory, Kitt Peak-Spacewatch MPS 843274
2012 03 27.46429 15 13 38.66 -07 59 21.1 21.4 V 691 – Steward Observatory, Kitt Peak-Spacewatch MPS 843274
2012 03 31.41629 15 12 22.05 -07 40 35.3 21.5 V 691 – Steward Observatory, Kitt Peak-Spacewatch MPS 843274
2012 03 31.43403 15 12 21.64 -07 40 30.2 21.3 V 691 – Steward Observatory, Kitt Peak-Spacewatch MPS 843274
2012 03 31.45177 15 12 21.25 -07 40 24.9 21.2 V 691 – Steward Observatory, Kitt Peak-Spacewatch MPS 843274
2012 05 18.36372 14 42 25.558 -04 00 20.82 21.2 w F51 – Pan-STARRS 1, Haleakala MPS 843274
2012 05 18.37728 14 42 24.995 -04 00 18.43 21.3 w F51 – Pan-STARRS 1, Haleakala MPS 843274
2012 05 18.39088 14 42 24.449 -04 00 15.91 21.2 w F51 – Pan-STARRS 1, Haleakala MPS 843274
2012 05 18.40454 14 42 23.888 -04 00 13.46 21.2 w F51 – Pan-STARRS 1, Haleakala MPS 843274
2014 07 29.54777 00 42 51.114 +02 31 01.35 21.6 w F51 – Pan-STARRS 1, Haleakala MPS 843274
2014 07 29.56007 00 42 51.291 +02 31 00.17 21.5 w F51 – Pan-STARRS 1, Haleakala MPS 843274
2014 07 29.57239 00 42 51.441 +02 30 59.45 21.6 w F51 – Pan-STARRS 1, Haleakala MPS 843274
2014 07 29.58478 00 42 51.615 +02 30 58.32 21.6 w F51 – Pan-STARRS 1, Haleakala MPS 843274
2014 08 28.39539 00 41 38.26 +00 48 28.6 21.4 V 691 – Steward Observatory, Kitt Peak-Spacewatch MPS 843274
2014 08 28.41571 00 41 37.83 +00 48 22.0 21.3 V 691 – Steward Observatory, Kitt Peak-Spacewatch MPS 843274
2014 08 28.43604 00 41 37.40 +00 48 15.3 21.0 V 691 – Steward Observatory, Kitt Peak-Spacewatch MPS 843274
2014 09 22.41668 00 28 34.403 -01 56 03.22 20.5 w F51 – Pan-STARRS 1, Haleakala MPS 843274
2014 09 22.42865 00 28 33.915 -01 56 08.38 20.4 w F51 – Pan-STARRS 1, Haleakala MPS 843274
2014 09 22.44065 00 28 33.424 -01 56 13.55 20.3 w F51 – Pan-STARRS 1, Haleakala MPS 843274
2014 09 22.45265 00 28 32.925 -01 56 18.68 20.5 w F51 – Pan-STARRS 1, Haleakala MPS 843274
2014 10 01.31672 00 22 33.96 -02 59 04.7 20.2 V G96 – Mt. Lemmon Survey MPS 843274
2014 10 01.32182 00 22 33.75 -02 59 06.9 20.1 V G96 – Mt. Lemmon Survey MPS 843274
2014 10 01.32692 00 22 33.54 -02 59 08.8 20.1 V G96 – Mt. Lemmon Survey MPS 843274
2014 10 01.33202 00 22 33.33 -02 59 11.1 20.3 V G96 – Mt. Lemmon Survey MPS 843274
2014 10 02.26976 00 21 55.08 -03 05 35.7 20.1 V 703 – Catalina Sky Survey MPS 843274
2014 10 02.30319 00 21 53.73 -03 05 50.8 20.0 V 703 – Catalina Sky Survey MPS 843274
2014 10 28.36879 00 06 59.605 -05 28 10.37 21.0 w F51 – Pan-STARRS 1, Haleakala MPS 843274
2014 10 28.38094 00 06 59.298 -05 28 12.88 21.0 w F51 – Pan-STARRS 1, Haleakala MPS 843274
2014 10 28.39312 00 06 58.976 -05 28 15.74 21.1 w F51 – Pan-STARRS 1, Haleakala MPS 843274
2014 10 28.40527 00 06 58.671 -05 28 18.21 20.9 w F51 – Pan-STARRS 1, Haleakala MPS 843274
2017 03 04.44260 12 00 04.080 +02 36 46.27 21.4 w F51 – Pan-STARRS 1, Haleakala MPS 782319
2017 03 04.45480 12 00 03.619 +02 36 51.05 21.3 w F51 – Pan-STARRS 1, Haleakala MPS 782319
2017 03 04.46700 12 00 03.143 +02 36 56.14 21.3 w F51 – Pan-STARRS 1, Haleakala MPS 782319
2017 03 04.47926 12 00 02.658 +02 37 01.12 21.2 w F51 – Pan-STARRS 1, Haleakala MPS 782319
2017 03 08.39025 11 57 32.61 +03 03 47.6 20.5 V G96 – Mt. Lemmon Survey MPS 782319
2017 03 08.39532 11 57 32.41 +03 03 49.5 21.2 V G96 – Mt. Lemmon Survey MPS 782319
2017 03 08.39959 11 57 32.26 +03 03 51.3 20.5 V G96 – Mt. Lemmon Survey MPS 782319
2017 03 08.40387 11 57 32.04 +03 03 52.8 21.3 V G96 – Mt. Lemmon Survey MPS 782319
2017 03 18.28930 11 50 51.01 +04 12 33.2 20.5 V G96 – Mt. Lemmon Survey MPS 782319
2017 03 18.29427 11 50 50.78 +04 12 34.9 20.3 V G96 – Mt. Lemmon Survey MPS 782319
2017 03 18.29854 11 50 50.61 +04 12 36.6 20.5 V G96 – Mt. Lemmon Survey MPS 782319
2017 03 18.30282 11 50 50.41 +04 12 38.4 20.3 V G96 – Mt. Lemmon Survey MPS 782319
2017 03 18.31132 11 50 50.226 +04 12 42.54 20.7 w F51 – Pan-STARRS 1, Haleakala MPS 782319
2017 03 18.32303 11 50 49.728 +04 12 47.41 20.6 w F51 – Pan-STARRS 1, Haleakala MPS 782319
2017 03 18.33472 11 50 49.234 +04 12 52.28 20.6 w F51 – Pan-STARRS 1, Haleakala MPS 782319
2017 03 25.25251 11 46 06.70 +04 59 23.6 20.8 V G96 – Mt. Lemmon Survey MPS 782319
2017 03 25.25679 11 46 06.55 +04 59 25.2 20.7 V G96 – Mt. Lemmon Survey MPS 782319
2017 03 25.26106 11 46 06.37 +04 59 27.1 21.2 V G96 – Mt. Lemmon Survey MPS 782319
2017 03 25.26534 11 46 06.15 +04 59 28.5 21.4 V G96 – Mt. Lemmon Survey MPS 782319
2017 03 27.88398 11 44 22.41 +05 16 17.3 20.8 V 198 – Wildberg MPS 782319
2017 03 27.89809 11 44 21.88 +05 16 23.0 20.8 V 198 – Wildberg MPS 782319
2017 03 27.91221 11 44 21.31 +05 16 28.1 20.7 V 198 – Wildberg MPS 782319
2017 03 27.92632 11 44 20.72 +05 16 32.9 20.6 V 198 – Wildberg MPS 782319
2017 03 27.94044 11 44 20.15 +05 16 38.2 20.6 V 198 – Wildberg MPS 782319
2017 03 27.95455 11 44 19.56 +05 16 42.7 20.6 V 198 – Wildberg MPS 782319
2017 03 27.96866 11 44 18.97 +05 16 47.7 20.6 V 198 – Wildberg MPS 782319
2017 03 28.45914 11 43 59.902 +05 19 56.52 20.9 w F51 – Pan-STARRS 1, Haleakala MPS 782319
2017 03 28.47099 11 43 59.424 +05 20 01.00 20.7 w F51 – Pan-STARRS 1, Haleakala MPS 782319
2017 03 28.48286 11 43 58.949 +05 20 05.46 20.9 w F51 – Pan-STARRS 1, Haleakala MPS 782319
2017 03 28.90193 11 43 42.83 +05 22 41.5 20.6 V 198 – Wildberg MPS 782319
2017 03 28.91250 11 43 42.41 +05 22 45.3 20.4 V 198 – Wildberg MPS 782319
2017 03 28.95410 11 43 40.79 +05 23 00.7 20.7 V 198 – Wildberg MPS 782319
2017 03 28.97454 11 43 40.00 +05 23 08.3 20.8 V 198 – Wildberg MPS 782319
2017 03 28.97948 11 43 39.80 +05 23 09.6 20.7 V 198 – Wildberg MPS 782319
2017 03 29.86605 11 43 05.85 +05 28 39.4 20.9 V 198 – Wildberg MPS 785843
2017 03 29.89144 11 43 04.88 +05 28 49.3 20.8 V 198 – Wildberg MPS 785843
2017 03 29.91401 11 43 03.98 +05 28 57.0 21.0 V 198 – Wildberg MPS 785843
2017 03 29.92529 11 43 03.52 +05 29 01.3 21.0 V 198 – Wildberg MPS 785843
2017 03 29.93798 11 43 03.03 +05 29 05.9 20.9 V 198 – Wildberg MPS 785843
2017 04 16.21789 11 33 50.66 +06 58 00.8 21.8 V G96 – Mt. Lemmon Survey MPS 793032
2017 04 16.22219 11 33 50.59 +06 58 01.6 21.3 V G96 – Mt. Lemmon Survey MPS 793032
2017 04 16.22907 11 33 50.37 +06 58 03.6 20.8 V G96 – Mt. Lemmon Survey MPS 793032
2017 04 16.23334 11 33 50.31 +06 58 04.5 21.0 V G96 – Mt. Lemmon Survey MPS 793032
2018 06 05.38647 16 14 16.542 -08 16 50.03 21.1 w F51 – Pan-STARRS 1, Haleakala MPS 895034
